Snowfall_Accumulation
0.0 0.0 0.0 0.0 0.0 0.0 0.0 0.0 0.0 0.0 0.0 0.0 0.0 0.0 0.0 0.0 0.0 0.0 0.0 0.0 0.0 0.0 0.0 0.0 0.0 0.0 0.0 0.0 0.0 0.0 0.0 0.0 0.0 0.0 0.0 0.0 0.0 0.0 0.0 0.0 0.0 0.0 0.0
0.0 0.0 0.0 0.0 0.0 0.0 0.0 0.0 0.0 0.0 0.0 0.0 0.0 0.0 0.0 0.0 0.0 0.0 0.0 0.0 0.0 0.0 0.0 0.0 0.0 0.0 0.0 0.0 0.0 0.0 0.0 0.0 0.0 0.0 0.0 0.0 0.0 0.0 0.0 0.0 0.0 0.0 0.0
0.0 0.0 0.0 0.0 0.0 0.0 0.0 0.0 0.0 0.0 0.0 0.0 0.0 0.0 0.0 0.0 0.0 0.0 0.0 0.0 0.0 0.0 0.0 0.0 0.0 0.0 0.0 0.0 0.0 0.0 0.0 0.0 0.0 0.0 0.0 0.0 0.0 0.0 0.0 0.0 0.0 0.0 0.0
0.0 0.0 0.0 0.0 0.0 0.0 0.0 0.0 0.0 0.0 0.0 0.0 0.0 0.0 0.0 0.0 0.0 0.0 0.0 0.0 0.0 0.0 0.0 0.0 0.0 0.0 0.0 0.0 0.0 0.0 0.0 0.0 0.0 0.0 0.0 0.0 0.0 0.0 0.0 0.0 0.0 0.0 0.0
0.0 0.0 0.0 0.0 0.0 0.0 0.0 0.0 0.0 0.0 0.0 0.0 0.0 0.0 0.0 0.0 0.0 0.0 0.0 0.0 0.0 0.0 0.0 0.0 0.0 0.0 0.0 0.0 0.0 0.0 0.0 0.0 0.0 0.0 0.0 0.0 0.0 0.0 0.0 0.0 0.0 0.0 0.0
0.0 0.0 0.0 0.0 0.0 0.0 0.0 0.0 0.0 0.0 0.0 0.0 0.0 0.0 0.0 0.0 0.0 0.0 0.0 0.0 0.0 0.0 0.0 0.0 0.0 0.0 0.0 0.0 0.0 0.0 0.0 0.0 0.0 0.0 0.0 0.0 0.0 0.0 0.0 0.0 0.0 0.0 0.0
0.0 0.0 0.0 0.0 0.0 0.0 0.0 0.0 0.0 0.0 0.0 0.0 0.0 0.0 0.0 0.0 0.0 0.0 0.0 0.0 0.0 0.0 0.0 0.0 0.0 0.0 0.0 0.0 0.0 0.0 0.0 0.0 0.0 0.0 0.0 0.0 0.0 0.0 0.0 0.0 0.0 0.0 0.0
0.0 0.0 0.0 0.0 0.0 0.0 0.0 0.0 0.0 0.0 0.0 0.0 0.0 0.0 0.0 0.0 0.0 0.0 0.0 0.0 0.0 0.0 0.0 0.0 0.0 0.0 0.0 0.0 0.0 0.0 0.0 0.0 0.0 0.0 0.0 0.0 0.0 0.0 0.0 0.0 0.0 0.0 0.0
0.0 0.0 0.0 0.0 0.0 0.0 0.0 0.0 0.0 0.0 0.0 0.0 0.0 0.0 0.0 0.0 0.0 0.0 0.0 0.0 0.0 0.0 0.0 0.0 0.0 0.0 0.0 0.0 0.0 0.0 0.0 0.0 0.0 0.0 0.0 0.0 0.0 0.0 0.0 0.0 0.0 0.1 0.0
0.0 0.0 0.0 0.0 0.0 0.0 0.0 0.0 0.0 0.0 0.0 0.0 0.0 0.0 0.0 0.0 0.0 0.0 0.0 0.0 0.0 0.0 0.0 0.0 0.0 0.0 0.0 0.0 0.0 0.0 0.0 0.0 0.0 0.0 0.0 0.0 0.0 0.0 0.0 0.0 0.0 0.0 0.0
0.0 0.0 0.0 0.0 0.0 0.0 0.0 0.0 0.0 0.0 0.0 0.0 0.0 0.0 0.0 0.0 0.0 0.0 0.0 0.0 0.0 0.0 0.0 0.0 0.0 0.0 0.0 0.0 0.0 0.0 0.0 0.0 0.0 0.0 0.0 0.0 0.0 0.0 0.0 0.0 0.0 0.0 0.0
0.0 0.0 0.0 0.0 0.0 0.0 0.0 0.0 0.0 0.0 0.0 0.0 0.0 0.0 0.0 0.0 0.0 0.0 0.0 0.0 0.0 0.0 0.0 0.0 0.0 0.0 0.0 0.0 0.0 0.0 0.0 0.0 0.0 0.0 0.0 0.0 0.0 0.0 0.0 0.0 0.0 0.0 0.0
0.0 0.0 0.0 0.0 0.0 0.0 0.0 0.0 0.0 0.0 0.0 0.0 0.0 0.0 0.0 0.0 0.0 0.0 0.0 0.0 0.0 0.0 0.0 0.0 0.0 0.0 0.0 0.0 0.0 0.0 0.0 0.0 0.0 0.0 0.0 0.0 0.0 0.0 0.0 0.0 0.0 0.0 0.0
0.0 0.0 0.0 0.0 0.0 0.0 0.0 0.0 0.0 0.0 0.0 0.0 0.0 0.0 0.0 0.0 0.0 0.0 0.0 0.0 0.0 0.0 0.0 0.0 0.0 0.0 0.0 0.0 0.0 0.0 0.0 0.0 0.0 0.0 0.0 0.0 0.1 0.2 0.1 0.0 0.0 0.0 0.0
0.0 0.0 0.0 0.0 0.0 0.0 0.0 0.0 0.0 0.0 0.0 0.0 0.0 0.1 0.0 0.0 0.0 0.0 0.0 0.0 0.0 0.0 0.0 0.0 0.0 0.0 0.0 0.0 0.0 0.0 0.0 0.0 0.0 0.0 0.0 0.1 nan nan nan 0.4 0.2 0.1 0.1
0.0 0.0 0.0 0.0 0.0 0.0 0.0 0.0 0.0 0.0 0.0 0.0 0.2 0.8 0.1 0.1 0.3 0.2 0.1 0.0 0.0 0.0 0.1 0.1 0.0 0.0 0.0 nan nan 0.0 0.0 0.0 0.1 0.1 0.1 0.1 0.1 0.1 nan nan nan nan 1.6
0.0 0.0 0.0 0.0 0.0 0.0 0.0 0.0 0.0 0.0 0.1 0.2 0.3 0.9 1.1 0.9 2.0 0.2 0.1 0.4 0.4 0.2 0.2 1.8 0.4 1.3 0.8 nan nan nan 0.4 0.4 1.2 1.0 0.6 0.4 0.9 nan 0.4 nan nan nan nan
0.0 0.0 0.0 0.0 0.0 0.0 0.0 0.0 0.1 0.1 0.2 0.7 1.3 0.7 1.1 3.0 0.7 2.4 4.0 3.4 2.6 4.2 4.8 2.0 3.0 1.0 1.9 nan nan nan 3.0 4.5 4.7 5.2 5.1 3.6 3.0 3.6 2.4 2.4 3.1 4.4 3.9
0.9 0.1 0.1 0.1 0.1 0.1 0.1 0.1 0.2 0.3 0.4 3.0 3.0 4.2 4.4 5.0 3.0 5.5 8.9 5.2 3.3 3.2 5.6 6.2 5.2 5.0 7.9 nan nan 5.4 4.1 5.7 6.1 6.4 6.6 6.9 6.6 nan nan 5.3 6.4 8.3 10.9
0.3 2.6 0.6 0.1 0.1 0.1 0.1 0.4 1.1 1.8 3.5 3.6 3.6 2.5 3.8 5.3 8.3 4.7 4.8 6.0 3.7 5.0 3.8 4.1 4.8 nan 6.7 nan nan nan 9.0 9.5 10.2 6.6 5.8 nan 8.1 nan nan 6.1 7.8 11.6 17.8
0.2 0.1 0.6 2.9 0.9 0.1 0.1 0.5 2.2 3.3 4.3 3.0 3.2 2.9 1.2 2.3 3.1 2.8 3.5 4.0 4.7 4.3 5.9 5.6 6.4 6.4 6.2 7.8 nan nan 5.5 8.6 9.3 10.4 10.9 10.3 nan nan nan nan 7.9 15.4 13.4
0.1 0.0 0.1 0.2 1.0 0.5 0.5 1.4 1.0 2.3 1.2 2.2 2.3 2.6 3.3 1.9 1.2 1.6 2.2 3.4 4.5 5.6 7.3 6.9 6.8 7.1 7.3 nan nan nan nan nan 7.7 11.1 12.2 16.0 nan nan nan 7.4 nan nan 4.5
0.0 0.0 0.0 0.1 0.2 0.1 0.1 1.9 2.5 0.6 0.8 0.7 1.3 2.4 1.5 0.9 1.1 1.7 2.4 1.6 0.9 1.9 4.3 6.0 8.4 10.2 9.0 9.2 nan nan nan nan 11.4 13.2 17.0 nan nan nan 1.8 nan nan 4.0 11.4
0.0 0.0 0.0 0.1 0.1 0.1 0.2 0.3 0.4 0.5 1.1 0.9 0.9 0.8 0.7 0.9 0.8 1.0 1.2 1.5 2.2 2.7 2.7 3.7 4.4 4.6 4.4 5.3 4.6 5.0 5.0 2.6 6.3 2.7 7.2 4.0 6.4 3.5 4.7 4.6 5.7 6.0 7.2
0.0 0.0 0.0 0.0 0.0 0.1 0.2 0.2 0.3 0.3 0.5 0.5 0.6 0.7 0.9 0.6 0.9 1.5 1.4 1.2 2.2 2.5 3.6 5.2 4.8 8.2 10.2 10.1 6.4 6.3 6.1 5.8 4.9 4.6 6.2 5.9 5.1 5.1 4.3 4.0 4.2 3.4 3.0
0.0 0.0 0.0 0.0 0.0 0.0 0.1 0.1 0.0 0.1 0.2 0.4 0.8 0.9 0.8 1.0 0.9 0.9 1.8 nan nan nan nan nan 3.0 6.6 nan nan nan nan nan nan nan 3.3 4.8 8.4 7.7 4.5 2.6 3.0 2.7 2.2 1.8
Water_Equivalent
0.00 0.00 0.00 0.00 0.00 0.00 0.00 0.00 0.00 0.00 0.00 0.00 0.00 0.00 0.00 0.00 0.00 0.00 0.00 0.00 0.00 0.00 0.00 0.00 0.00 0.00 0.00 0.00 0.00 0.00 0.00 0.00 0.00 0.00 0.00 0.00 0.00 0.00 0.00 0.00 0.00 0.00 0.00
0.00 0.00 0.00 0.00 0.00 0.00 0.00 0.00 0.00 0.00 0.00 0.00 0.00 0.00 0.00 0.00 0.00 0.00 0.00 0.00 0.00 0.00 0.00 0.00 0.00 0.00 0.00 0.00 0.00 0.00 0.00 0.00 0.00 0.00 0.00 0.00 0.00 0.00 0.00 0.00 0.00 0.00 0.00
0.00 0.00 0.00 0.00 0.00 0.00 0.00 0.00 0.00 0.00 0.00 0.00 0.00 0.00 0.00 0.00 0.00 0.00 0.00 0.00 0.00 0.00 0.00 0.00 0.00 0.00 0.00 0.00 0.00 0.00 0.00 0.00 0.00 0.00 0.00 0.00 0.00 0.00 0.00 0.00 0.00 0.00 0.00
0.00 0.00 0.00 0.00 0.00 0.00 0.00 0.00 0.00 0.00 0.00 0.00 0.00 0.00 0.00 0.00 0.00 0.00 0.00 0.00 0.00 0.00 0.00 0.00 0.00 0.00 0.00 0.00 0.00 0.00 0.00 0.00 0.00 0.00 0.00 0.00 0.00 0.00 0.00 0.00 0.00 0.00 0.00
0.00 0.00 0.00 0.00 0.00 0.00 0.00 0.00 0.00 0.00 0.00 0.00 0.00 0.00 0.00 0.00 0.00 0.00 0.00 0.00 0.00 0.00 0.00 0.00 0.00 0.00 0.00 0.00 0.00 0.00 0.00 0.00 0.00 0.00 0.00 0.00 0.00 0.00 0.00 0.00 0.00 0.00 0.00
0.00 0.00 0.00 0.00 0.00 0.00 0.00 0.00 0.00 0.00 0.00 0.00 0.00 0.00 0.00 0.00 0.00 0.00 0.00 0.00 0.00 0.00 0.00 0.00 0.00 0.00 0.00 0.00 0.00 0.00 0.00 0.00 0.00 0.00 0.00 0.00 0.00 0.00 0.00 0.00 0.00 0.00 0.00
0.00 0.00 0.00 0.00 0.00 0.00 0.00 0.00 0.00 0.00 0.00 0.00 0.00 0.00 0.00 0.00 0.00 0.00 0.00 0.00 0.00 0.00 0.00 0.00 0.00 0.00 0.00 0.00 0.00 0.00 0.00 0.00 0.00 0.00 0.00 0.00 0.00 0.00 0.00 0.00 0.00 0.00 0.00
0.00 0.00 0.00 0.00 0.00 0.00 0.00 0.00 0.00 0.00 0.00 0.00 0.00 0.00 0.00 0.00 0.00 0.00 0.00 0.00 0.00 0.00 0.00 0.00 0.00 0.00 0.00 0.00 0.00 0.00 0.00 0.00 0.00 0.00 0.00 0.00 0.00 0.00 0.00 0.00 0.00 0.00 0.00
0.00 0.00 0.00 0.00 0.00 0.00 0.00 0.00 0.00 0.00 0.00 0.00 0.00 0.00 0.00 0.00 0.00 0.00 0.00 0.00 0.00 0.00 0.00 0.00 0.00 0.00 0.00 0.00 0.00 0.00 0.00 0.00 0.00 0.00 0.00 0.00 0.00 0.00 0.00 0.00 0.00 0.01 0.01
0.00 0.00 0.00 0.00 0.00 0.00 0.00 0.00 0.00 0.00 0.00 0.00 0.00 0.00 0.00 0.00 0.00 0.00 0.00 0.00 0.00 0.00 0.00 0.00 0.00 0.00 0.00 0.00 0.00 0.00 0.00 0.00 0.00 0.00 0.00 0.00 0.00 0.00 0.00 0.00 0.00 0.00 0.01
0.00 0.00 0.00 0.00 0.00 0.00 0.00 0.00 0.00 0.00 0.00 0.00 0.00 0.00 0.00 0.00 0.00 0.00 0.00 0.00 0.00 0.00 0.00 0.00 0.00 0.00 0.00 0.00 0.00 0.00 0.00 0.00 0.00 0.00 0.00 0.00 0.00 0.00 0.00 0.00 0.00 0.00 0.00
0.00 0.00 0.00 0.00 0.00 0.00 0.00 0.00 0.00 0.00 0.00 0.00 0.00 0.00 0.00 0.00 0.00 0.00 0.00 0.00 0.00 0.00 0.00 0.00 0.00 0.00 0.00 0.00 0.00 0.00 0.00 0.00 0.00 0.00 0.00 0.00 0.00 0.00 0.00 0.00 0.00 0.00 0.00
0.00 0.00 0.00 0.00 0.00 0.00 0.00 0.00 0.00 0.00 0.00 0.00 0.00 0.00 0.00 0.00 0.00 0.00 0.00 0.00 0.00 0.00 0.00 0.00 0.00 0.00 0.00 0.00 0.00 0.00 0.00 0.00 0.00 0.00 0.00 0.00 0.00 0.00 0.00 0.00 0.00 0.00 0.00
0.00 0.00 0.00 0.00 0.00 0.00 0.00 0.00 0.00 0.00 0.00 0.00 0.00 0.00 0.00 0.00 0.00 0.00 0.00 0.00 0.00 0.00 0.00 0.00 0.00 0.00 0.00 0.00 0.00 0.00 0.00 0.00 0.00 0.00 0.00 0.01 0.02 0.03 0.01 0.00 0.00 0.00 0.00
0.00 0.00 0.00 0.00 0.00 0.00 0.00 0.00 0.00 0.00 0.00 0.00 0.00 0.02 0.01 0.00 0.00 0.00 0.00 0.00 0.00 0.00 0.00 0.00 0.00 0.00 0.00 0.00 0.00 0.00 0.00 0.00 0.00 0.00 0.00 0.01 nan nan nan 0.07 0.03 0.01 0.01
0.00 0.00 0.00 0.00 0.00 0.00 0.00 0.00 0.00 0.00 0.00 0.00 0.06 0.21 0.03 0.03 0.07 0.06 0.04 0.01 0.00 0.01 0.02 0.01 0.01 0.00 0.00 nan nan 0.00 0.00 0.01 0.01 0.03 0.01 0.02 0.03 0.03 nan nan nan nan 0.20
0.00 0.00 0.00 0.00 0.00 0.00 0.00 0.00 0.00 0.00 0.02 0.04 0.07 0.19 0.27 0.21 0.45 0.04 0.03 0.09 0.08 0.04 0.04 0.37 0.08 0.29 0.18 nan nan nan 0.09 0.09 0.23 0.19 0.10 0.07 0.15 nan 0.06 nan nan nan nan
0.00 0.00 0.00 0.00 0.00 0.00 0.00 0.01 0.01 0.03 0.04 0.16 0.28 0.16 0.23 0.55 0.16 0.51 0.75 0.66 0.56 0.88 0.96 0.38 0.66 0.21 0.38 nan nan nan 0.58 0.81 0.81 0.96 0.89 0.64 0.47 0.56 0.36 0.36 0.51 0.72 0.67
0.30 0.02 0.02 0.02 0.02 0.02 0.02 0.04 0.06 0.06 0.08 0.60 0.66 0.94 0.84 0.82 0.59 0.89 1.69 1.12 0.67 0.65 1.04 1.30 0.91 0.92 1.59 nan nan 1.13 0.76 1.03 0.99 1.10 1.19 1.20 1.06 nan nan 0.82 0.99 1.32 1.79
0.08 0.77 0.16 0.04 0.02 0.03 0.02 0.13 0.30 0.50 0.87 0.87 0.80 0.54 0.90 1.13 1.84 1.14 0.97 1.57 0.90 1.08 0.82 0.79 0.99 nan 1.31 nan nan nan 2.03 1.73 1.86 1.22 1.17 nan 1.32 nan nan 0.96 1.26 1.87 2.78
0.04 0.02 0.22 0.89 0.23 0.03 0.03 0.12 0.60 0.69 1.10 0.80 0.96 0.80 0.29 0.54 0.78 0.84 1.14 1.09 1.27 1.16 1.29 1.21 1.27 1.27 1.30 1.64 nan nan 1.07 1.70 1.90 2.07 2.17 2.18 nan nan nan nan 1.43 2.49 2.42
0.01 0.00 0.01 0.05 0.31 0.17 0.16 0.31 0.19 0.51 0.28 0.54 0.56 0.58 0.77 0.45 0.28 0.40 0.54 0.90 1.17 1.38 1.58 1.41 1.47 1.50 1.54 nan nan nan nan nan 1.47 1.95 2.24 3.13 nan nan nan 1.61 nan nan 1.25
0.00 0.00 0.01 0.02 0.03 0.02 0.03 0.46 0.51 0.12 0.17 0.12 0.23 0.53 0.32 0.18 0.22 0.36 0.51 0.36 0.21 0.39 0.77 1.04 1.39 1.58 1.50 1.51 nan nan nan nan 1.94 2.35 3.08 nan nan nan 0.60 nan nan 1.31 1.98
0.01 0.00 0.01 0.02 0.02 0.01 0.04 0.06 0.07 0.10 0.19 0.15 0.15 0.12 0.11 0.16 0.14 0.21 0.29 0.36 0.48 0.53 0.51 0.63 0.72 0.75 0.78 0.94 0.90 0.96 0.94 0.74 1.17 0.75 1.36 1.31 1.30 1.17 1.25 1.01 0.97 1.01 1.17
0.01 0.00 0.00 0.00 0.00 0.01 0.03 0.03 0.05 0.06 0.09 0.08 0.09 0.11 0.15 0.10 0.15 0.27 0.27 0.26 0.38 0.49 0.67 0.95 0.93 1.51 1.84 1.88 1.39 1.30 1.23 1.17 1.06 1.18 1.33 1.15 0.99 0.90 0.73 0.68 0.69 0.57 0.53
0.00 0.00 0.00 0.00 0.00 0.00 0.02 0.02 0.01 0.01 0.04 0.06 0.17 0.22 0.20 0.23 0.21 0.24 0.37 nan nan nan nan nan 0.71 1.39 nan nan nan nan nan nan nan 0.70 0.88 1.37 1.34 0.80 0.45 0.51 0.46 0.38 0.38
SL_Ratio
nan nan nan nan nan nan nan nan nan nan nan nan nan nan nan nan nan nan nan nan nan nan nan nan nan nan nan nan nan nan nan nan nan nan nan nan nan nan nan nan nan nan nan
nan nan nan nan nan nan nan nan nan nan nan nan nan nan nan nan nan nan nan nan nan nan nan nan nan nan nan nan nan nan nan nan nan nan nan nan nan nan nan nan nan nan nan
nan nan nan nan nan nan nan nan nan nan nan nan nan nan nan nan nan nan nan nan nan nan nan nan nan nan nan nan nan nan nan nan nan nan nan nan nan nan nan nan nan nan nan
nan nan nan nan nan nan nan nan nan nan nan nan nan nan nan nan nan nan nan nan nan nan nan nan nan nan nan nan nan nan nan nan nan nan nan nan nan nan nan nan nan nan nan
nan nan nan nan nan nan nan nan nan nan nan nan nan nan nan nan nan nan nan nan nan nan nan nan nan nan nan nan nan nan nan nan nan nan nan nan nan nan nan nan nan nan nan
nan nan nan nan nan nan nan nan nan nan nan nan nan nan nan nan nan nan nan nan nan nan nan nan nan nan nan nan nan nan nan nan nan nan nan nan nan nan nan nan nan nan nan
nan nan nan nan nan nan nan nan nan nan nan nan nan nan nan nan nan nan nan nan nan nan nan nan nan nan nan nan nan nan nan nan nan nan nan nan nan nan nan nan nan nan nan
nan nan nan nan nan nan nan nan nan nan nan nan nan nan nan nan nan nan nan nan nan nan nan nan nan nan nan nan nan nan nan nan nan nan nan nan nan nan nan nan nan nan nan
nan nan nan nan nan nan nan nan nan nan nan nan nan nan nan nan nan nan nan nan nan nan nan nan nan nan nan nan nan nan nan nan nan nan nan nan nan nan nan nan nan 5.4 6.0
nan nan nan nan nan nan nan nan nan nan nan nan nan nan nan nan nan nan nan nan nan nan nan nan nan nan nan nan nan nan nan nan nan nan nan nan nan nan nan nan nan nan 5.3
nan nan nan nan nan nan nan nan nan nan nan nan nan nan nan nan nan nan nan nan nan nan nan nan nan nan nan nan nan nan nan nan nan nan nan nan nan nan nan nan nan nan nan
nan nan nan nan nan nan nan nan nan nan nan nan nan nan nan nan nan nan nan nan nan nan nan nan nan nan nan nan nan nan nan nan nan nan nan nan nan nan nan nan nan nan nan
nan nan nan nan nan nan nan nan nan nan nan nan nan nan nan nan nan nan nan nan nan nan nan nan nan nan nan nan nan nan nan nan nan nan nan nan nan 6.7 nan nan nan nan nan
nan nan nan nan nan nan nan nan nan nan nan nan nan nan nan nan nan nan nan nan nan nan nan nan nan nan nan nan nan nan nan nan nan nan nan 5.9 5.7 5.9 5.9 nan nan nan nan
nan nan nan nan nan nan nan nan nan nan nan nan 4.0 3.7 3.7 5.0 nan nan nan nan nan nan nan nan nan nan nan nan 0.0 nan nan nan nan nan nan 5.0 nan nan nan 6.0 6.3 5.8 5.5
nan nan nan nan nan nan nan nan nan 5.0 3.3 3.3 4.0 3.7 4.0 4.1 3.9 3.4 3.9 4.2 5.0 3.8 3.7 4.2 4.7 4.5 nan nan nan 5.0 4.0 4.1 4.4 5.0 4.5 4.7 5.1 4.9 nan nan nan nan 7.9
nan nan nan nan nan nan nan nan 4.0 3.8 4.1 4.4 4.5 4.5 4.2 4.4 4.6 4.4 4.3 4.5 4.6 4.5 4.8 5.0 4.7 4.6 4.6 nan nan nan 4.5 5.1 5.3 5.3 5.5 5.7 5.7 nan 5.9 nan nan nan nan
nan nan nan 3.3 3.8 nan 5.0 3.3 3.7 4.1 4.5 4.7 4.8 4.5 4.8 5.4 4.7 4.8 5.3 5.1 4.7 4.8 5.0 5.2 4.5 4.7 5.0 nan nan nan 5.1 5.6 5.8 5.4 5.8 5.7 6.3 6.4 6.6 6.6 6.2 6.1 5.8
3.0 3.9 3.6 3.9 3.7 3.7 3.4 3.9 4.4 4.7 5.2 5.0 4.6 4.4 5.2 6.1 5.2 6.2 5.2 4.7 4.8 5.0 5.4 4.8 5.7 5.4 5.0 nan nan 4.8 5.4 5.5 6.1 5.8 5.5 5.7 6.3 nan nan 6.4 6.5 6.3 6.1
3.8 3.4 3.6 3.4 3.5 3.5 3.7 3.3 3.9 3.6 4.1 4.2 4.5 4.6 4.2 4.7 4.5 4.1 4.9 3.8 4.1 4.6 4.6 5.2 4.9 nan 5.1 nan nan nan 4.4 5.5 5.5 5.4 4.9 nan 6.1 nan nan 6.4 6.2 6.2 6.4
3.9 3.9 2.9 3.3 3.7 3.0 3.4 3.9 3.7 4.9 3.9 3.8 3.3 3.7 4.3 4.2 3.9 3.3 3.0 3.6 3.7 3.7 4.6 4.7 5.0 5.0 4.7 4.8 nan nan 5.2 5.1 4.9 5.0 5.0 4.7 nan nan nan nan 5.5 6.2 5.5
4.0 3.6 4.1 4.1 3.3 3.1 3.2 4.5 5.0 4.5 4.2 4.0 4.2 4.4 4.2 4.2 4.3 4.0 4.2 3.8 3.8 4.1 4.6 4.9 4.6 4.7 4.7 nan nan nan nan nan 5.3 5.7 5.5 5.1 nan nan nan 4.6 nan nan 3.6
4.3 nan 4.4 4.9 4.8 4.4 4.6 4.3 4.9 5.1 4.8 5.7 5.6 4.5 4.7 5.2 4.8 4.8 4.7 4.4 4.4 4.7 5.6 5.8 6.0 6.4 6.0 6.1 nan nan nan nan 5.9 5.6 5.5 nan nan nan 3.0 nan nan 3.0 5.7
4.4 nan 4.7 5.0 5.5 5.4 5.6 5.7 5.5 5.3 5.6 6.1 6.5 6.7 6.6 5.8 5.7 4.6 4.2 4.3 4.6 5.0 5.3 5.8 6.1 6.0 5.7 5.7 5.1 5.1 5.3 3.5 5.4 3.6 5.3 3.0 4.9 3.0 3.8 4.6 5.8 5.9 6.2
4.5 nan 0.0 6.7 5.0 5.5 5.7 5.6 5.6 5.6 6.3 6.5 6.6 6.6 5.8 6.4 5.9 5.5 5.0 4.5 5.7 5.2 5.4 5.5 5.2 5.4 5.6 5.4 4.6 4.8 5.0 5.0 4.6 3.9 4.7 5.1 5.2 5.7 5.8 5.9 6.1 5.9 5.7
nan nan nan nan 0.0 5.6 5.5 5.4 5.2 5.5 5.1 6.0 4.5 4.3 4.1 4.3 4.2 3.9 4.8 nan nan nan nan nan 4.2 4.8 nan nan nan nan nan nan nan 4.7 5.4 6.1 5.7 5.7 5.7 5.9 5.9 5.8 4.8